Weather History for Galliano, LA

Change the Weather History Date:

Wednesday, July 10, 2013

  Actual Average (KAXO) Record (KAXO)
Temperature  
Mean Temperature 82 °F -  
Max Temperature 92 °F 84 °F 93 °F (2007)
Min Temperature 72 °F 80 °F 78 °F (2013)
Cooling Degree Days 17    
Growing Degree Days 32 (Base 50)    
Moisture  
Dew Point 75 °F    
Average Humidity 78    
Maximum Humidity 100    
Minimum Humidity 50    
Precipitation  
Precipitation 0.00 in - - ()
Sea Level Pressure  
Sea Level Pressure 30.07 in    
Wind  
Wind Speed 3 mph (SSW)    
Max Wind Speed 12 mph    
Max Gust Speed -    
Visibility 10 miles    
Events Rain , Thunderstorm    
Averages and records for this station are not official NWS values.
T = Trace of Precipitation, MM = Missing Value Source: NWS Daily Summary

Daily Weather History Graph

Daily Weather History Graph

Search for Another Location

Airport:

Trip Planner

Search our weather history database for the weather conditions in past years. The results will help you decide how hot, cold, wet, or windy it might be!

Date:

Astronomy

Jul. 10, 2013 Rise Set
Actual Time 6:08 AM CDT 8:03 PM CDT
Civil Twilight 5:42 AM CDT 8:30 PM CDT
Nautical Twilight 5:09 AM CDT 9:03 PM CDT
Astronomical Twilight 4:35 AM CDT 9:37 PM CDT
Moon 8:16 AM CDT (7/10) 9:29 PM CDT (7/10)
Length of Visible Light 14h 48m
Length of Day
13h 54m
Waxing Crescent, 5% of the Moon is Illuminated
Jul 10
Waxing Crescent
Jul 15
First Quarter
Jul 22
Full
Jul 29
Last Quarter
Aug 6
New

Hourly Weather History & Observations

Time (CDT) Temp. Heat Index Dew Point Humidity Pressure Visibility Wind Dir Wind Speed Gust Speed Precip Events Conditions
12:15 AM 77.9 °F - 75.6 °F 92% 30.12 in 10.0 mi SSE 4.6 mph - N/A   Clear
12:35 AM 77.9 °F - 75.7 °F 93% 30.11 in 10.0 mi SE 4.6 mph - N/A   Clear
12:55 AM 77.4 °F - 75.6 °F 94% 30.11 in 10.0 mi Calm Calm - N/A   Clear
1:15 AM 77.4 °F - 75.7 °F 95% 30.10 in 10.0 mi SSE 3.5 mph - N/A   Clear
1:35 AM 77.0 °F - 75.7 °F 96% 30.09 in 10.0 mi SSE 3.5 mph - N/A   Clear
1:55 AM 76.6 °F - 75.4 °F 96% 30.09 in 10.0 mi SSE 3.5 mph - N/A   Clear
2:15 AM 76.3 °F - 75.6 °F 98% 30.08 in 10.0 mi SSE 3.5 mph - N/A   Clear
2:55 AM 75.4 °F - 75.0 °F 99% 30.09 in 10.0 mi SSE 3.5 mph - N/A   Clear
3:15 AM 75.4 °F - 74.8 °F 98% 30.09 in 10.0 mi Calm Calm - N/A   Clear
3:35 AM 75.2 °F - 75.0 °F 99% 30.09 in 10.0 mi Calm Calm - N/A   Clear
3:55 AM 74.5 °F - 73.9 °F 98% 30.10 in 10.0 mi Calm Calm - N/A   Scattered Clouds
4:15 AM 74.8 °F - 74.3 °F 98% 30.10 in 10.0 mi Calm Calm - N/A   Mostly Cloudy
4:35 AM 74.3 °F - 73.8 °F 98% 30.10 in 10.0 mi Calm Calm - N/A   Scattered Clouds
4:55 AM 73.6 °F - 73.4 °F 99% 30.10 in 10.0 mi Calm Calm - N/A   Clear
5:15 AM 73.2 °F - 72.9 °F 99% 30.10 in 10.0 mi Calm Calm - N/A   Clear
5:35 AM 72.9 °F - 72.7 °F 99% 30.10 in 10.0 mi Calm Calm - N/A   Clear
5:55 AM 73.0 °F - 72.9 °F 99% 30.10 in 10.0 mi Calm Calm - N/A   Clear
6:15 AM 72.9 °F - 72.9 °F 100% 30.10 in 10.0 mi NNW 3.5 mph - N/A   Scattered Clouds
6:35 AM 72.9 °F - 72.9 °F 100% 30.11 in 10.0 mi Calm Calm - N/A   Scattered Clouds
6:55 AM 74.3 °F - 74.3 °F 100% 30.11 in 10.0 mi Calm Calm - N/A   Clear
7:15 AM 74.8 °F - 74.8 °F 100% 30.11 in 10.0 mi Calm Calm - N/A   Clear
7:35 AM 75.6 °F - 75.6 °F 100% 30.11 in 10.0 mi Calm Calm - N/A   Clear
7:55 AM 76.3 °F - 76.3 °F 100% 30.12 in 10.0 mi Calm Calm - N/A   Clear
8:15 AM 78.6 °F - 78.1 °F 98% 30.12 in 10.0 mi Calm Calm - N/A   Clear
8:35 AM 83.1 °F 93.6 °F 78.6 °F 86% 30.12 in 10.0 mi Calm Calm - N/A   Clear
8:55 AM 84.6 °F 94.7 °F 77.0 °F 78% 30.12 in 10.0 mi Calm Calm - N/A   Scattered Clouds
9:15 AM 85.3 °F 95.4 °F 76.6 °F 75% 30.12 in 10.0 mi SSW 4.6 mph - N/A   Scattered Clouds
9:35 AM 86.9 °F 96.4 °F 75.4 °F 68% 30.11 in 10.0 mi West 3.5 mph - N/A   Scattered Clouds
9:55 AM 85.8 °F 94.2 °F 74.7 °F 69% 30.11 in 10.0 mi Calm Calm - N/A   Scattered Clouds
10:15 AM 86.9 °F 95.4 °F 74.3 °F 66% 30.12 in 10.0 mi Calm Calm - N/A   Scattered Clouds
10:35 AM 87.3 °F 96.3 °F 74.5 °F 66% 30.12 in 10.0 mi WSW 3.5 mph - N/A   Scattered Clouds
10:55 AM 89.2 °F 97.9 °F 73.9 °F 60% 30.12 in 10.0 mi West 3.5 mph - N/A   Scattered Clouds
11:15 AM 90.0 °F 97.9 °F 73.0 °F 57% 30.12 in 10.0 mi Calm Calm - N/A   Clear
11:35 AM 90.3 °F 97.2 °F 71.6 °F 54% 30.12 in 10.0 mi SW 3.5 mph - N/A   Scattered Clouds
11:55 AM 91.0 °F 97.6 °F 71.4 °F 52% 30.12 in 10.0 mi Calm Calm - N/A   Scattered Clouds
12:15 PM 89.8 °F 96.5 °F 71.8 °F 55% 30.11 in 10.0 mi Calm Calm - N/A   Clear
12:35 PM 91.8 °F 98.1 °F 70.7 °F 50% 30.10 in 10.0 mi West 3.5 mph - N/A   Clear
12:55 PM 91.4 °F 100.7 °F 73.9 °F 56% 30.09 in 10.0 mi South 6.9 mph - N/A   Scattered Clouds
1:15 PM 91.4 °F 101.9 °F 74.7 °F 58% 30.09 in 10.0 mi South 5.8 mph - N/A   Scattered Clouds
1:35 PM 91.6 °F 101.1 °F 74.1 °F 56% 30.07 in 10.0 mi South 9.2 mph - N/A   Clear
1:55 PM 92.1 °F 103.0 °F 74.7 °F 57% 30.07 in 10.0 mi South 6.9 mph - N/A   Clear
2:15 PM 91.6 °F 101.7 °F 74.3 °F 57% 30.06 in 10.0 mi SSW 4.6 mph - N/A   Clear
2:35 PM 92.1 °F 103.0 °F 74.7 °F 57% 30.05 in 10.0 mi South 5.8 mph - N/A   Clear
2:55 PM 91.8 °F 100.3 °F 73.2 °F 54% 30.04 in 10.0 mi South 6.9 mph - N/A   Clear
3:15 PM 92.3 °F 102.8 °F 74.5 °F 56% 30.04 in 10.0 mi South 8.1 mph - N/A   Clear
3:35 PM 92.1 °F 102.4 °F 74.1 °F 56% 30.04 in 10.0 mi South 9.2 mph - N/A   Clear
3:55 PM 92.3 °F 102.8 °F 74.5 °F 56% 30.03 in 10.0 mi SSW 8.1 mph - N/A   Clear
4:15 PM 91.4 °F 101.9 °F 74.8 °F 58% 30.02 in 10.0 mi South 8.1 mph - N/A   Clear
4:35 PM 91.6 °F 102.9 °F 75.6 °F 59% 30.02 in 10.0 mi South 10.4 mph - N/A   Clear
4:55 PM 90.7 °F 102.6 °F 76.1 °F 62% 30.02 in 10.0 mi South 11.5 mph - N/A   Clear
5:15 PM 90.7 °F 103.2 °F 76.5 °F 63% 30.01 in 10.0 mi South 10.4 mph - N/A   Clear
5:35 PM 90.1 °F 102.4 °F 76.5 °F 64% 30.01 in 10.0 mi SSW 11.5 mph - N/A   Clear
5:55 PM 89.2 °F 100.1 °F 75.7 °F 64% 30.01 in 10.0 mi SSW 9.2 mph - N/A   Clear
6:15 PM 87.6 °F 97.1 °F 75.2 °F 66% 30.01 in 10.0 mi SSW 6.9 mph - N/A Thunderstorm Clear
6:35 PM 86.7 °F 96.4 °F 75.6 °F 69% 30.02 in 10.0 mi South 4.6 mph - N/A Thunderstorm Clear
6:55 PM 86.2 °F 95.5 °F 75.6 °F 70% 30.01 in 10.0 mi South 5.8 mph - N/A Thunderstorm Thunderstorm
7:15 PM 86.0 °F 95.1 °F 75.2 °F 70% 30.01 in 10.0 mi South 3.5 mph - N/A Thunderstorm Unknown
7:35 PM 82.9 °F 89.7 °F 74.3 °F 75% 30.01 in 10.0 mi NNE 9.2 mph - N/A Rain , Thunderstorm Thunderstorms and Rain
7:55 PM 81.7 °F 87.6 °F 74.1 °F 78% 30.01 in 10.0 mi NNE 3.5 mph - N/A Rain Light Rain
8:15 PM 80.6 °F 86.0 °F 75.0 °F 83% 30.00 in 10.0 mi NE 5.8 mph - N/A   Light Drizzle
8:35 PM 80.6 °F 86.2 °F 75.4 °F 84% 30.00 in 10.0 mi Calm Calm - N/A   Scattered Clouds
8:55 PM 80.6 °F 86.2 °F 75.4 °F 84% 30.00 in 10.0 mi Calm Calm - N/A   Scattered Clouds
9:15 PM 80.2 °F 85.7 °F 75.6 °F 86% 30.00 in 10.0 mi Calm Calm - N/A   Clear
9:35 PM 81.0 °F 87.5 °F 76.3 °F 86% 30.00 in 10.0 mi SSW 5.8 mph - N/A   Clear
9:55 PM 81.9 °F 89.7 °F 77.0 °F 85% 30.00 in 10.0 mi SSW 4.6 mph - N/A   Clear
10:15 PM 82.4 °F 90.9 °F 77.2 °F 84% 30.00 in 10.0 mi SSW 4.6 mph - N/A   Clear
10:35 PM 82.8 °F 91.6 °F 77.0 °F 83% 30.01 in 10.0 mi SW 4.6 mph - N/A   Clear
10:55 PM 82.8 °F 91.0 °F 76.5 °F 81% 30.02 in 10.0 mi SSW 3.5 mph - N/A   Clear
11:15 PM 81.9 °F 89.5 °F 76.6 °F 84% 30.02 in 10.0 mi SSW 4.6 mph - N/A   Clear
11:35 PM 81.9 °F 89.5 °F 76.5 °F 84% 30.01 in 10.0 mi SSW 4.6 mph - N/A   Clear
11:55 PM 82.4 °F 90.3 °F 76.5 °F 82% 30.01 in 10.0 mi SSW 4.6 mph - N/A   Clear